[TLELIST] Archives

 

[list_settings.list_name] Current TLEs

April 6th 2010 PST

HST 1 20580U 90037B 10096.10228843 .00000773 00000-0 46440-4 0 5465 2 20580 028.4699 350.4344 0003568 151.7519 208.3319 15.00940823893917 ISS (ZARYA) 1 25544U 98067A 10096.50881196 .00023866 00000-0 16492-3 0 9208 2 25544 051.6464 238.5633 0005748 141.7303 301.5735 15.74399302652180 CXO 1 25867U 99040B 10095.00000000 .00000088 00000-0 10000-3 0 4462 2 25867 066.7865 057.0937 8052414 275.2028 356.3210 00.37808472 6116 ____________________________________________________________________ These 2-Line ...Continue Reading

[list_settings.list_name] Current TLEs

April 5th 2010 PST

HST 1 20580U 90037B 10093.17654767 .00000590 00000-0 32369-4 0 5458 2 20580 028.4701 009.5346 0003545 126.0101 234.0844 15.00937367893471 ISS (ZARYA) 1 25544U 98067A 10095.36702409 .00027026 00000-0 18644-3 0 9113 2 25544 051.6461 244.4284 0005975 140.5495 307.0856 15.74357602652009 CXO 1 25867U 99040B 10095.00000000 .00000088 00000-0 10000-3 0 4462 2 25867 066.7865 057.0937 8052414 275.2028 356.3210 00.37808472 6116 ____________________________________________________________________ These 2-Line ...Continue Reading

[list_settings.list_name] Current TLEs

April 4th 2010 PST

HST 1 20580U 90037B 10093.17654767 .00000590 00000-0 32369-4 0 5458 2 20580 028.4701 009.5346 0003545 126.0101 234.0844 15.00937367893471 ISS (ZARYA) 1 25544U 98067A 10094.35061106 .00028596 00000-0 19741-3 0 9058 2 25544 051.6466 249.6520 0005922 133.3370 309.8197 15.74307952651840 CXO 1 25867U 99040B 10095.00000000 .00000088 00000-0 10000-3 0 4462 2 25867 066.7865 057.0937 8052414 275.2028 356.3210 00.37808472 6116 ____________________________________________________________________ These 2-Line ...Continue Reading

[list_settings.list_name] Current TLEs

April 4th 2010 PST

HST 1 20580U 90037B 10093.17654767 .00000590 00000-0 32369-4 0 5458 2 20580 028.4701 009.5346 0003545 126.0101 234.0844 15.00937367893471 ISS (ZARYA) 1 25544U 98067A 10093.52323568 .00026078 00000-0 18087-3 0 8985 2 25544 051.6450 253.8998 0006170 134.8463 296.0612 15.74253581651717 CXO 1 25867U 99040B 10092.33333333 .00000027 00000-0 10000-3 0 4455 2 25867 066.7757 057.2147 8046540 275.1899 353.3272 00.37809037 6101 ____________________________________________________________________ These 2-Line ...Continue Reading

[list_settings.list_name] Current TLEs

April 3rd 2010 PST

HST 1 20580U 90037B 10092.17913420 .00000606 00000-0 33603-4 0 5440 2 20580 028.4701 016.0473 0003533 114.9342 245.1599 15.00936639893320 ISS (ZARYA) 1 25544U 98067A 10092.31683626 .00021671 00000-0 15161-3 0 8901 2 25544 051.6448 260.0938 0006404 128.5231 300.8450 15.74175592651529 CXO 1 25867U 99040B 10092.33333333 .00000027 00000-0 10000-3 0 4455 2 25867 066.7757 057.2147 8046540 275.1899 353.3272 00.37809037 6101 ____________________________________________________________________ These 2-Line ...Continue Reading

[list_settings.list_name] Current TLEs

April 2nd 2010 PST

HST 1 20580U 90037B 10091.18172083 .00000637 00000-0 36013-4 0 5433 2 20580 028.4703 022.5589 0003556 105.1589 254.9414 15.00936079893177 ISS (ZARYA) 1 25544U 98067A 10 91.47935872 .00024034 00000-0 16365-3 0 8857 2 25544 051.6428 264.4002 0006153 127.8185 232.3899 15.74141067651399 CXO 1 25867U 99040B 10089.70833333 .00000157 00000-0 10000-3 0 4440 2 25867 066.7625 057.3045 8038571 275.2064 355.9604 00.37806354 6097 ____________________________________________________________________ These 2-Line ...Continue Reading

[list_settings.list_name] Current TLEs

April 1st 2010 PST

HST 1 20580U 90037B 10089.98482348 .00000607 00000-0 33695-4 0 5425 2 20580 028.4701 030.3706 0003544 093.0753 267.0268 15.00934738892999 ISS (ZARYA) 1 25544U 98067A 10090.53457137 .00021676 00000-0 15215-3 0 8779 2 25544 051.6444 269.2476 0006504 123.4883 279.1739 15.74096542651245 CXO 1 25867U 99040B 10089.70833333 .00000157 00000-0 10000-3 0 4440 2 25867 066.7625 057.3045 8038571 275.2064 355.9604 00.37806354 6097 ____________________________________________________________________ These 2-Line ...Continue Reading

[list_settings.list_name] Current TLEs

March 31st 2010 PST

HST 1 20580U 90037B 10087.19205679 .00000571 00000-0 30945-4 0 5410 2 20580 028.4698 048.6001 0003280 065.1033 294.9901 15.00932024892575 ISS (ZARYA) 1 25544U 98067A 10089.51828443 .00022595 00000-0 15868-3 0 8705 2 25544 051.6447 274.4666 0006486 122.0322 277.8049 15.74055767651084 CXO 1 25867U 99040B 10089.70833333 .00000157 00000-0 10000-3 0 4440 2 25867 066.7625 057.3045 8038571 275.2064 355.9604 00.37806354 6097 ____________________________________________________________________ These 2-Line ...Continue Reading

[list_settings.list_name] Current TLEs

March 30th 2010 PST

HST 1 20580U 90037B 10087.19205679 .00000571 00000-0 30945-4 0 5410 2 20580 028.4698 048.6001 0003280 065.1033 294.9901 15.00932024892575 ISS (ZARYA) 1 25544U 98067A 10088.13231063 .00023054 00000-0 16223-3 0 8648 2 25544 051.6452 281.5839 0006548 117.7445 343.2026 15.73993389650865 CXO 1 25867U 99040B 10087.08333333 .00000288 00000-0 10000-3 0 4438 2 25867 066.7413 057.4025 8033619 275.2308 358.5227 00.37809712 6080 ____________________________________________________________________ These 2-Line ...Continue Reading

[list_settings.list_name] Current TLEs

March 29th 2010 PST

HST 1 20580U 90037B 10087.19205679 .00000571 00000-0 30945-4 0 5410 2 20580 028.4698 048.6001 0003280 065.1033 294.9901 15.00932024892575 ISS (ZARYA) 1 25544U 98067A 10087.11556872 .00023232 00000-0 16377-3 0 8573 2 25544 051.6444 286.8051 0006655 116.4654 339.4472 15.73946187650706 CXO 1 25867U 99040B 10087.08333333 .00000288 00000-0 10000-3 0 4438 2 25867 066.7413 057.4025 8033619 275.2308 358.5227 00.37809712 6080 ____________________________________________________________________ These 2-Line ...Continue Reading
  • This mailing list is a public mailing list - anyone may join or leave, at any time.
  • This mailing list is announce-only.

International Space Station (ISS) / Hubble Space Telescope (HST) / Chandra X-Ray Observatory Orbital Data via EMAIL

Privacy Policy:

Private list